Regional Weather Roundup
Issued by NWS

Home | Current Version | Previous Version | Text Only | Print | Product List | Glossary Off
Versions: 1 2 3 4 5 6 7 8 9 10 11 12 13 14 15 16 17 18 19 20 21 22 23 24 25 26 27 28 29 30 31 32 33 34 35 36 37 38 39 40 41 42 43 44 45 46 47 48 49 50

000
ASUS43 KDMX 271307
RWRIA

WEATHER ROUNDUP FOR IOWA
NATIONAL WEATHER SERVICE DES MOINES IA
800 AM CDT MON APR 27 2015

NOTE: "FAIR" INDICATES FEW OR NO CLOUDS BELOW 12,000 FEET WITH NO
SIGNIFICANT WEATHER AND/OR OBSTRUCTIONS TO VISIBILITY.

* - THESE STATIONS ARE NOT NWS STATIONS...THUS NOT UNDER NWS
QUALITY CONTROL.  THEY ALSO DO NOT REPORT WEATHER SUCH
AS PRECIPITATION OR FOG.

IAZ001>003-012>014-020>022-031>034-043>046-271400-
   NORTHWEST IOWA

CITY           SKY/WX    TMP DP  RH WIND       PRES   REMARKS
CARROLL *      SUNNY     45  36  70 N6        30.19S
CHEROKEE *     SUNNY     37  36  93 CALM      30.23R
DENISON *      SUNNY     41  39  93 NE6       30.19R
LE MARS *      SUNNY     39  34  81 CALM      30.24R
ORANGE CITY *  SUNNY     43  28  56 E7        30.22R
SHELDON *      SUNNY     41  30  65 CALM      30.22R
SIOUX CITY     MOSUNNY   44  34  67 N3        30.21R
SPENCER        SUNNY     42  32  67 N5        30.22R
STORM LAKE *   SUNNY     45  34  65 N6        30.22R
$$

IAZ055>058-069>071-079>083-090>094-271400-
   SOUTHWEST IOWA

CITY           SKY/WX    TMP DP  RH WIND       PRES   REMARKS
ATLANTIC *     SUNNY     39  36  87 N3        30.19R
AUDUBON *      SUNNY     41  36  81 CALM      30.19R
CLARINDA *     SUNNY     41  36  81 N6        30.20R
COUNCIL BLFS * SUNNY     43  37  81 N7        30.19R
CRESTON *      SUNNY     45  36  70 N6        30.17R
HARLAN  *      SUNNY     41  41 100 NE5       30.22R
LAMONI         SUNNY     46  35  65 N7        30.15R
RED OAK *      SUNNY     41  36  81 CALM      30.19R
SHENANDOAH *   SUNNY     41  37  87 CALM      30.20R
$$

IAZ047>049-059>061-072>074-084-271400-
   CENTRAL IOWA

CITY           SKY/WX    TMP DP  RH WIND       PRES   REMARKS
AMES           SUNNY     43  33  68 N7        30.18R
ANKENY *       SUNNY     43  36  75 N7        30.17R
CHARITON *     SUNNY     45  36  70 N7        30.15R
DES MOINES     MOSUNNY   48  33  56 N5        30.17R
GRINNELL*      SUNNY     45  32  61 N5        30.16S
KNOXVILLE *    SUNNY     43  37  81 N7        30.14R
MARSHALLTOWN   SUNNY     42  33  70 N8        30.17R
PELLA *        SUNNY     46  37  71 N6        30.16R
PERRY *          N/A     43  36  75 N7        30.18R
$$

IAZ004>006-015-016-023>025-035-036-271400-
   NORTH CENTRAL IOWA

CITY           SKY/WX    TMP DP  RH WIND       PRES   REMARKS
ALGONA *       SUNNY     43  32  65 N7        30.22R
CLARION *      SUNNY     43  34  70 N6        30.20R
ESTHERVILLE    SUNNY     41  28  60 N5        30.21R
FORT DODGE *   SUNNY     43  32  65 N3        30.21R
MASON CITY     SUNNY     43  33  68 N6        30.22R
FOREST CITY *  SUNNY     41  32  70 N6        30.21R
IOWA FALLS *     N/A     45  32  61 NE7       30.19S
$$

IAZ007>011-017>019-026>030-037>042-050>054-066-271400-
   NORTHEAST IOWA

CITY           SKY/WX    TMP DP  RH WIND       PRES   REMARKS
CEDAR RAPIDS   SUNNY     43  34  70 NE8       30.15R
CHARLES CITY * SUNNY     43  32  65 NE6       30.20R
CLINTON *      SUNNY     41  34  75 CALM      30.19R
DECORAH *      SUNNY     41  30  65 CALM      30.18R
DUBUQUE        SUNNY     43  31  62 N5        30.17R
MONTICELLO *   SUNNY     41  34  75 NE3       30.17R
OELWEIN *      SUNNY     43  32  65 E5        30.18R
WATERLOO       SUNNY     41  34  76 CALM      30.18R
$$

IAZ064-065-067-068-078-271400-
   EAST CENTRAL IOWA

CITY           SKY/WX    TMP DP  RH WIND       PRES   REMARKS
DAVENPORT      SUNNY     43  33  68 NE9       30.16R
IOWA CITY      SUNNY     45  32  60 E8        30.17R
MT. PLEASANT * SUNNY     43  34  70 N10       30.13R
MUSCATINE *    SUNNY     45  36  70 E6        30.16R
QUAD CITIES    SUNNY     43  33  68 E6        30.15R
$$

IAZ062-063-075>077-085>089-095>099-271400-
   SOUTHEAST IOWA

CITY           SKY/WX    TMP DP  RH WIND       PRES   REMARKS
BURLINGTON     SUNNY     47  37  68 NE6       30.12R
FAIRFIELD *    SUNNY     45  34  65 N12       30.13R
FORT MADISON * SUNNY     46  37  71 N5        30.12S
KEOKUK *       SUNNY     48  37  66 N5        30.11S
OSKALOOSA *      N/A     43  34  70 N8        30.14R
CENTERVILLE *  SUNNY     45  39  81 NW7       30.15R
OTTUMWA        SUNNY     45  36  70 N8        30.13R
WASHINGTON *   SUNNY     43  39  87 N12       30.13S
$$

ABBREVIATIONS USED IN REMARKS
   TC - TEMPERATURES IN CELSIUS
  WCI - WIND CHILL INDEX
   HX - HEAT INDEX
  VSB - VISIBILITY
$$



USA.gov is the U.S. government's official web portal to all federal, state and local government web resources and services.